Miscellaneous Local Product
Issued by NWS North Platte, NE

Home | Current Version | Previous Version | Graphics & Text | Print | Product List | Glossary On
Versions: 1 2 3 4 5 6 7 8 9 10 11 12 13 14 15 16 17 18 19 20 21 22 23 24 25 26 27 28 29 30 31 32 33 34 35 36 37 38 39 40 41 42 43 44 45 46 47 48 49 50
063
AXUS43 KLBF 191010
MISLBF


WESTERN AND NORTH CENTRAL NEBRASKA HOURLY WEATHER ROUNDUP
NATIONAL WEATHER SERVICE NORTH PLATTE NE
400 AM CST FRI JAN 19 2018

NOTE: "FAIR" INDICATES FEW OR NO CLOUDS BELOW 12,000 FEET WITH NO
SIGNIFICANT WEATHER AND/OR OBSTRUCTIONS TO VISIBILITY.

NOTE: STATIONS NOT REPORTING VARIABLES SUCH AS SKY/WEATHER OR
PRESSURE ARE PROVIDED BY RAWS AND APRS NETWORKS AND ARE NOT UNDER
NATIONAL WEATHER SERVICE QUALITY CONTROL.

...OBSERVATIONS IN AND NEAR THE EASTERN PANHANDLE OF NEBRASKA...

CITY           SKY/WX    TMP DP  RH WIND       PRES   REMARKS
PINE RIDGE     CLOUDY    36  29  75 NW5       29.67F WCI  32
GORDON         FAIR      40  30  67 SW10G16   29.67F WCI  34
CHADRON        CLOUDY    36  29  75 SW10      29.66F WCI  28
ALLIANCE       CLOUDY    37  29  72 SW9       29.75S WCI  30
SIDNEY         CLOUDY    34  21  59 W9        29.78F WCI  27
CRESCENT LAKE    N/A     42  24  49 SW7         N/A
$$

...OBSERVATIONS IN NORTHERN NEBRASKA AND FAR SOUTHERN SOUTH DAKOTA...

CITY           SKY/WX    TMP DP  RH WIND       PRES   REMARKS
WINNER         FAIR      44  31  60 SW8       29.61F
VALENTINE      MOCLDY    38  30  73 SW7       29.65F WCI  33
AINSWORTH      PTCLDY    41  32  70 SW13      29.66F
O`NEILL        CLOUDY    40  32  74 SW10      29.66F WCI  33
THEDFORD       PTCLDY    42  31  67 W5        29.72F
BROKEN BOW     MOCLDY    36  25  64 W9        29.73F WCI  29
ORD            CLOUDY    27  24  89 SE3       29.71F
ALBION         CLOUDY    33  27  80 SE6       29.72F WCI  27
VALENTINE NWR    N/A     47  30  51 SW12        N/A
HALSEY           N/A     41  28  58 SW5         N/A
BUTTE            N/A     39  31  75 SW6         N/A  WCI  35
CHAMBERS         N/A     41  28  59 W7          N/A
EWING            N/A     38  31  76 SW5         N/A  WCI  34
$$

...OBSERVATIONS IN SOUTHWEST NEBRASKA AND FAR NORTHEAST COLORADO...

CITY           SKY/WX    TMP DP  RH WIND       PRES   REMARKS
WRAY           FAIR      36  14  41 W7        29.81F WCI  30
HOLYOKE        FAIR      34  23  64 W9        29.80F WCI  26
IMPERIAL       MOCLDY    31  23  72 W5        29.79F WCI  26
OGALLALA       MOCLDY    28  24  85 W8        29.78F WCI  20
NORTH PLATTE   PTCLDY    24  20  84 NW6       29.77F WCI  17
MCCOOK         PTCLDY    30  21  69 W9        29.79F WCI  22
LEXINGTON      CLOUDY    29  24  82 NW6       29.77F WCI  23
STAPLETON        N/A     35  28  75 CALM        N/A
GOTHENBURG       N/A     29  23  78 CALM        N/A
CALLAWAY         N/A     41  28  58 W12         N/A
$$

...OBSERVATIONS IN CENTRAL LINCOLN COUNTY AREA...

CITY           SKY/WX    TMP DP  RH WIND       PRES   REMARKS
N.P. AIRPORT   PTCLDY    24  20  84 NW6       29.77F WCI  17
N.P. DOWNTOWN    N/A     25  23  93 CALM        N/A
N.P. SOUTHEAST   N/A     28  24  86 CALM        N/A
N.P. HILLCREST   N/A     33  27  79 W3          N/A
$$

...SOME OBSERVATIONS FROM AROUND THE REGION...

CITY           SKY/WX    TMP DP  RH WIND       PRES   REMARKS
DENVER         CLOUDY    44  12  27 SW6       29.84F
BERTHOUD PASS  FAIR      28  18  64 W38G49    30.14F WCI  11
GRAND JUNCTION PTCLDY    26  18  71 E3        30.10S
LARAMIE        CLOUDY    37  15  40 SW14      29.90F WCI  28
CHEYENNE       CLOUDY    44  16  32 SW10      29.86F
CASPER         LGT RAIN  43  15  32 SW30G43   29.75F
BISMARCK       CLOUDY    25  22  88 SW3       29.55F
RAPID CITY     CLOUDY    39  27  62 E3        29.58F
PIERRE         CLOUDY    23  22  96 W3        29.58F
SIOUX FALLS    CLOUDY    28  25  88 MISG      29.65F
OMAHA          CLOUDY    26  22  84 S9        29.81F WCI  17
GRAND ISLAND   CLOUDY    36  25  64 SW12      29.76F WCI  28
SCOTTSBLUFF    CLOUDY    33  28  81 CALM      29.77F
KANSAS CITY    CLOUDY    33  19  56 SW16      29.95F WCI  23
HILL CITY      CLOUDY    31  14  49 W6        29.82F WCI  25
WICHITA        CLOUDY    29  16  58 S14       29.99F WCI  18
DODGE CITY     CLOUDY    32  12  43 SW12      29.91F WCI  23
OKLAHOMA CITY  CLOUDY    25  15  66 S9        30.09F WCI  15
DALLAS         MOCLDY    41  20  43 S9        30.24S
AMARILLO       CLOUDY    30  12  47 SW14      29.99F WCI  19
$$




USA.gov is the U.S. government's official web portal to all federal, state and local government web resources and services.